sat.trackr.live / text

‹ back to catalog

STARLINK-36986

NORAD 68207 · 2026-053A

PAYLOAD ACTIVE UNKNOWN

§ Identity

Operator
Country
US
Launch date
2026-03-17
Launch site
AFWTR
Launch vehicle
Mass (kg)
RCS (m²)

Purposes: comms

External: N2YO · Heavens-Above · Gunter

§ Orbital elements

Epoch: 2026-05-25T02:20:03.352128Z

Period
93.91 min
Inclination
97.2885°
Eccentricity
0.0001205
Mean motion
15.33461890 rev/d
Perigee alt
464.7 km
Apogee alt
466.3 km
Semi-major
6,843.6 km
B*
5.3041e-4
RAAN
20.4843°
Arg perigee
91.5937°
Mean anomaly
268.5444°
Rev number
1,192

§ Raw data

STARLINK-369861 68207U 26053A   26145.09726102  .00017097  00000+0  53041-3 0  99932 68207  97.2885  20.4843 0001205  91.5937 268.5444 15.33461890 11923

JSON: /api/v1/satellites/68207 · /tle

For live sub-satellite position, see the globe view (requires WebGL).

§ Visibility from observer

Set your observer location to see the next 7 days of passes ≥ 10°. The values pass through the URL so the page stays shareable.

No JS? Fill the form by hand. The geolocation button needs JavaScript.